This is the latest recevied weather packets stored in our database for station/object SP9KB-13. If no packets are shown the sender has not sent any weather packets the latest 10 day(s).
| Time | Temp. | Humidity | Pressure | Rain* | Wind** | Luminosity | Snow |
|---|---|---|---|---|---|---|---|
| 1778015854 | 7.78° C | 80% | 991.7 hPa | 0 mm | - | - | - |
| 1778015554 | 8.33° C | 80% | 991.7 hPa | 0 mm | - | - | - |
| 1778015253 | 8.33° C | 80% | 991.7 hPa | 0 mm | - | - | - |
| 1778014652 | 8.89° C | 77% | 991.7 hPa | 0 mm | - | - | - |
| 1778013450 | 10° C | 70% | 991.7 hPa | 0 mm | - | - | - |
| 1778013149 | 10° C | 71% | 991.7 hPa | 0 mm | - | - | - |
| 1778012849 | 10.56° C | 70% | 991.6 hPa | 0 mm | - | - | - |
| 1778012548 | 10.56° C | 68% | 991.6 hPa | 0 mm | - | - | - |
| 1778012247 | 10.56° C | 68% | 991.6 hPa | 0 mm | - | - | - |
| 1778011947 | 11.11° C | 67% | 991.6 hPa | 0 mm | - | - | - |
| 1778011646 | 11.11° C | 66% | 991.8 hPa | 0 mm | - | - | - |
| 1778011345 | 11.67° C | 67% | 991.5 hPa | 0 mm | - | - | - |
| 1778011045 | 11.67° C | 67% | 991.7 hPa | 0 mm | - | - | - |
| 1778009843 | 12.22° C | 63% | 991.6 hPa | 0 mm | - | - | - |
| 1778009542 | 12.22° C | 63% | 991.5 hPa | 0 mm | - | - | - |
| 1778009242 | 12.78° C | 64% | 991.6 hPa | 0 mm | - | - | - |
| 1778008941 | 12.78° C | 60% | 991.7 hPa | 0 mm | - | - | - |
| 1778008641 | 12.78° C | 63% | 991.4 hPa | 0 mm | - | - | - |
| 1778008040 | 13.33° C | 60% | 991.5 hPa | 0 mm | - | - | - |
| 1778007439 | 13.89° C | 58% | 991.4 hPa | 0 mm | - | - | - |
| 1778006237 | 16.11° C | 49% | 991.4 hPa | 0 mm | - | - | - |
| 1778002628 | 20° C | 37% | 991.2 hPa | 0 mm | - | - | - |
| 1778002027 | 20.56° C | 35% | 991.1 hPa | 0 mm | - | - | - |
| 1778001726 | 20.56° C | 37% | 991 hPa | 0 mm | - | - | - |
| 1778001425 | 20.56° C | 36% | 991 hPa | 0 mm | - | - | - |
* Rain latest hour (hover to see other rain measurements)
** Current wind speed in m/s (hover to see current wind gust speed)